Regional Weather Roundup
Issued by NWS

Home | Current Version | Previous Version | Graphics & Text | Print | Product List | Glossary On
Versions: 1 2 3 4 5 6 7 8 9 10 11 12 13 14 15 16 17 18 19 20 21 22 23 24 25 26 27 28 29 30 31 32 33 34 35 36 37 38 39 40 41 42 43 44 45 46 47
000
ASUS45 KPSR 241210
RWRAZ

ARIZONA REGIONAL HOURLY WEATHER ROUNDUP
NATIONAL WEATHER SERVICE TUCSON AZ
500 AM MST SAT JUN 24 2017

NOTE: FAIR INDICATES FEW OR NO CLOUDS BELOW 12,000 FEET WITH NO
SIGNIFICANT WEATHER AND/OR OBSTRUCTIONS TO VISIBILITY.

AZZ001>003-036-241300-
NORTHWEST ARIZONA

CITY           SKY/WX    TMP DP  RH WIND       PRES   REMARKS
BULLHEAD CITY  CLEAR     90  45  20 CALM      29.70R
KINGMAN        CLEAR     73  35  25 SE5       29.95R
6HR MIN TEMP:  73; 6HR MAX TEMP:  90;

$$

AZZ004>008-015-016-018-241300-
NORTH CENTRAL ARIZONA

CITY           SKY/WX    TMP DP  RH WIND       PRES   REMARKS
GRAND CANYON   CLEAR     47  28  47 CALM      30.26R
6HR MIN TEMP:  46; 6HR MAX TEMP:  59;

PRESCOTT       CLEAR     68  40  35 S10       30.09S
6HR MIN TEMP:  67; 6HR MAX TEMP:  82;

FLAGSTAFF      CLEAR     52  29  41 CALM      30.27R
6HR MIN TEMP:  50; 6HR MAX TEMP:  68;

PAYSON         SUNNY     77  32  19 CALM      30.11R
PAGE           CLEAR     75  22  13 N3        30.07R
6HR MIN TEMP:  73; 6HR MAX TEMP:  88;

$$

AZZ009>014-017-241300-
NORTHEAST ARIZONA

CITY           SKY/WX    TMP DP  RH WIND       PRES   REMARKS
WINSLOW        CLEAR     66  24  20 SE3       30.10R
6HR MIN TEMP:  66; 6HR MAX TEMP:  84;

SAINT JOHNS    CLEAR     61  35  37 N3        30.15R
6HR MIN TEMP:  59; 6HR MAX TEMP:  81;

WINDOW ROCK    CLEAR     53  29  39 CALM      30.28R
6HR MIN TEMP:  52; 6HR MAX TEMP:  64;

SHOW LOW       PTCLDY    59  36  41 S7        30.22R
$$

AZZ023-241300-
GREATER PHOENIX AREA

CITY           SKY/WX    TMP DP  RH WIND       PRES   REMARKS
PHOENIX        MOCLDY    92  47  21 CALM      29.73R
6HR MIN TEMP:  90; 6HR MAX TEMP: 102;

LUKE AFB       CLEAR     89  48  24 CALM      29.73R
6HR MIN TEMP:  87; 6HR MAX TEMP:  99;

DEER VALLEY    CLEAR     80  47  31 E5        29.76R
6HR MIN TEMP:  80; 6HR MAX TEMP:  97;

SCOTTSDALE     CLEAR     87  50  27 CALM      29.78R
6HR MIN TEMP:  85; 6HR MAX TEMP: 100;

MESA-GATEWAY   PTCLDY    81  45  28 E6        29.77R
$$

AZZ027-028-241300-
SOUTHWEST MARICOPA COUNTY AND PINAL COUNTY

CITY           SKY/WX    TMP DP  RH WIND       PRES   REMARKS
CASA GRANDE    PTCLDY    80  46  30 CALM      29.78R
6HR MIN TEMP:  79; 6HR MAX TEMP:  93;

$$

AZZ503-504-507>509-241300-
SOUTHEAST ARIZONA

CITY           SKY/WX    TMP DP  RH WIND       PRES   REMARKS
TUCSON         PTCLDY    85  47  26 CALM      29.89R
6HR MIN TEMP:  83; 6HR MAX TEMP:  93;

DAVIS-MONTHAN  MOCLDY    82  46  27 SE6       29.88R
6HR MIN TEMP:  82; 6HR MAX TEMP:  91;

NOGALES        CLEAR     74  43  32 E6        29.98S
6HR MIN TEMP:  73; 6HR MAX TEMP:  84;

SIERRA VISTA   MOCLDY    78  38  24 S7        30.08R
6HR MIN TEMP:  78; 6HR MAX TEMP:  85;

DOUGLAS        PTCLDY    72  37  28 N7        30.02R
6HR MIN TEMP:  71; 6HR MAX TEMP:  85;

SAFFORD        CLEAR     80  42  25 SW9       29.92R
6HR MIN TEMP:  80; 6HR MAX TEMP:  92;

$$

AZZ020-021-025-026-031-241300-
SOUTHWEST ARIZONA

CITY           SKY/WX    TMP DP  RH WIND       PRES   REMARKS
YUMA           PTCLDY    80  60  50 W3        29.70R
6HR MIN TEMP:  80; 6HR MAX TEMP:  90;

$$

CAZ031-033-041-043-047-048-061-241300-
SOUTHERN CALIFORNIA

CITY           SKY/WX    TMP DP  RH WIND       PRES   REMARKS
DOWNTOWN L.A.  CLOUDY    63  60  90 CALM      29.87F
6HR MIN TEMP:  62; 6HR MAX TEMP:  65;

L.A. AIRPORT   CLOUDY    63  61  93 N5        29.87F FOG
6HR MIN TEMP:  61; 6HR MAX TEMP:  63;

SAN DIEGO      CLOUDY    65  62  90 NW6       29.88R
6HR MIN TEMP:  65; 6HR MAX TEMP:  67;

BURBANK        MOCLDY    62  58  86 SE3       29.87F
6HR MIN TEMP:  62; 6HR MAX TEMP:  66;

ONTARIO        MOCLDY    66  60  81 S5        29.88F
6HR MIN TEMP:  65; 6HR MAX TEMP:  70;

RIVERSIDE      PTCLDY    65  60  84 CALM      29.89S
6HR MIN TEMP:  64; 6HR MAX TEMP:  69;

PALM SPRINGS   PTCLDY    89  58  34 CALM      29.71S
6HR MIN TEMP:  86; 6HR MAX TEMP:  96;

EL CENTRO NAS  CLEAR     76  65  68 SE6       29.69R
6HR MIN TEMP:  76; 6HR MAX TEMP:  92;

IMPERIAL       CLEAR     80  66  62 E3        29.67R
6HR MIN TEMP:  80; 6HR MAX TEMP:  90;

BLYTHE         PTCLDY    86  58  38 S9        29.70R
6HR MIN TEMP:  86; 6HR MAX TEMP:  98;

NEEDLES        CLEAR     94  39  14 W5        29.71R
6HR MIN TEMP:  91; 6HR MAX TEMP: 108;

$$

NVZ020-UTZ003-241300-
SOUTHERN NEVADA-UTAH

CITY           SKY/WX    TMP DP  RH WIND       PRES   REMARKS
LAS VEGAS      CLEAR     89  28  11 CALM      29.85R
6HR MIN TEMP:  88; 6HR MAX TEMP: 100;

SALT LAKE CITY CLEAR     62  40  44 S3        30.17R
6HR MIN TEMP:  61; 6HR MAX TEMP:  71;

$$

NMZ009-TXZ055-241300-
NEW MEXICO-WEST TEXAS

CITY           SKY/WX    TMP DP  RH WIND       PRES   REMARKS
ALBUQUERQUE    PTCLDY    68  51  54 E18       30.23R
6HR MIN TEMP:  68; 6HR MAX TEMP:  74;

EL PASO        PTCLDY    78  56  46 E5        30.07R
6HR MIN TEMP:  78; 6HR MAX TEMP:  86;

$$


........................KEY........................
SKY/WX - SKY CONDITION/WEATHER
TMP    - TEMPERATURE IN FAHRENHEIT
DP     - DEWPOINT IN FAHRENHEIT
RH     - RELATIVE HUMIDITY IN PERCENT
WIND   - DIRECTION AND SPEED IN MILES PER HOUR (MPH)
VRB    - VARIABLE WIND DIRECTION
PRES   - MEAN SEA LEVEL PRESSURE IN INCHES OF MERCURY
         F - FALLING PRESSURE   R - RISING PRESSURE
         S - STEADY PRESSURE
VSB    - VISIBILITY IN MILES
HX     - HEAT INDEX IN FAHRENHEIT
WCI    - WIND CHILL INDEX IN FAHRENHEIT
TC     - TEMPERATURE IN CELSIUS WHICH IS ALSO KNOWN AS
         TEMPERATURE IN CENTIGRADE
AFB    - AIR FORCE BASE
         LUKE AFB IS LUKE AIR FORCE BASE
         DAVIS-MONTHAN IS DAVIS-MONTHAN AIR FORCE BASE
NAS    - NAVAL AIR STATION
         EL CENTRO NAS IS EL CENTRO NAVAL AIR STATION
N/A    - NOT AVAILABLE





USA.gov is the U.S. government's official web portal to all federal, state and local government web resources and services.